DW0269 Weather Reports


Display with metric or nautical units.
time (UTC)temp
F
wind
direction
speed
MPH
gust
MPH
rain 1hr
in
rain 24hr
in
rain mn
in
humidity
%
barometer
mb
20260904115755 66 41 7.0 18.0 0.00 0.00 0.00 93 945.7
20260904115254 66 44 7.0 18.0 0.00 0.00 0.00 93 945.6
20260904114753 66 49 5.0 18.0 0.00 0.00 0.00 93 946.0
20260904114252 66 48 6.0 18.0 0.00 0.00 0.00 93 945.9
20260904113750 66 47 7.0 18.0 0.00 0.00 0.00 93 945.7
20260904112217 66 52 7.0 14.0 0.00 0.00 0.00 94 945.8
20260904111716 66 50 7.0 14.0 0.00 0.00 0.00 94 946.0
20260904110659 66 47 7.0 16.0 0.00 0.00 0.00 94 946.3
20260904110158 65 47 7.0 14.0 0.00 0.00 0.00 94 945.9
20260904105657 65 43 7.0 14.0 0.00 0.00 0.00 94 946.0
20260904105156 65 46 7.0 16.0 0.00 0.00 0.00 95 946.0
20260904104655 66 52 8.0 16.0 0.00 0.00 0.00 95 946.1
20260904104154 65 48 8.0 15.0 0.00 0.00 0.00 95 946.1
20260904103653 65 53 6.0 18.0 0.00 0.00 0.00 95 946.0
20260904103152 65 55 6.0 18.0 0.00 0.00 0.00 95 945.9
20260904102651 65 50 7.0 18.0 0.00 0.00 0.00 95 945.9
20260904102150 66 57 8.0 19.0 0.00 0.00 0.00 95 946.1
20260904101649 66 54 9.0 19.0 0.00 0.00 0.00 96 946.1
20260904101148 66 57 5.0 18.0 0.00 0.00 0.00 96 946.6
20260904100647 66 52 7.0 15.0 0.00 0.00 0.00 96 946.6
20260904095630 66 46 8.0 19.0 0.00 0.00 0.00 96 946.7
20260904095129 66 47 6.0 19.0 0.00 0.00 0.00 96 946.5
20260904094628 66 54 6.0 18.0 0.00 0.00 0.00 96 946.4
20260904093611 66 45 7.0 19.0 0.00 0.00 0.00 96 946.5
20260904093110 66 61 6.0 13.0 0.00 0.00 0.00 96 946.6
20260904092609 66 53 6.0 13.0 0.00 0.00 0.00 96 946.3
20260904092108 66 47 6.0 14.0 0.00 0.00 0.00 97 946.4
20260904091607 66 44 6.0 14.0 0.00 0.00 0.00 97 946.4
20260904091106 66 55 6.0 14.0 0.00 0.00 0.00 96 946.6
20260904090605 66 48 6.0 14.0 0.00 0.00 0.00 96 946.4
20260904090104 66 65 5.0 14.0 0.00 0.00 0.00 96 946.6
20260904085603 66 58 5.0 14.0 0.00 0.00 0.00 96 946.7
20260904085102 66 55 5.0 14.0 0.00 0.00 0.00 96 946.9
20260904084045 66 53 6.0 14.0 0.00 0.00 0.00 96 946.9
20260904083544 66 50 7.0 13.0 0.00 0.00 0.00 96 947.0
20260904083043 66 52 7.0 13.0 0.00 0.00 0.00 96 946.9
20260904082542 65 49 5.0 13.0 0.00 0.00 0.00 96 946.8
20260904082041 65 50 5.0 13.0 0.00 0.00 0.00 96 946.9
20260904081540 65 57 6.0 14.0 0.00 0.00 0.00 96 947.0
20260904081039 65 59 6.0 14.0 0.00 0.00 0.00 96 946.7
20260904080538 65 69 6.0 16.0 0.00 0.00 0.00 96 947.0
20260904080037 65 67 6.0 16.0 0.00 0.00 0.00 96 946.7
20260904075536 65 64 5.0 16.0 0.00 0.00 0.00 96 947.3
20260904075035 65 72 7.0 14.0 0.00 0.00 0.00 96 947.0
20260904074534 66 57 5.0 13.0 0.00 0.00 0.00 96 947.0
20260904073517 65 63 7.0 14.0 0.00 0.00 0.00 95 947.1
20260904073016 65 66 8.0 14.0 0.00 0.00 0.00 95 946.9
20260904072515 65 61 6.0 14.0 0.00 0.00 0.00 94 946.7
20260904072014 65 60 6.0 14.0 0.00 0.00 0.00 93 946.9
20260904071513 66 60 7.0 14.0 0.00 0.00 0.00 93 946.8
20260904070456 65 59 6.0 15.0 0.00 0.00 0.00 93 946.7
20260904065955 65 62 8.0 16.0 0.00 0.00 0.00 93 946.9
20260904065454 65 64 7.0 16.0 0.00 0.00 0.00 93 946.5
20260904064953 65 63 7.0 15.0 0.00 0.00 0.00 93 946.5
20260904063935 65 61 7.0 20.0 0.00 0.00 0.00 94 946.9
20260904063434 66 73 9.0 20.0 0.00 0.00 0.00 94 946.6
20260904062933 66 65 9.0 18.0 0.00 0.00 0.00 95 946.4
20260904062432 66 68 7.0 18.0 0.00 0.00 0.00 96 946.6
20260904061931 66 61 8.0 14.0 0.00 0.00 0.00 96 946.4
20260904061430 66 64 7.0 20.0 0.00 0.00 0.00 96 946.3
20260904060929 66 75 8.0 20.0 0.00 0.00 0.00 96 946.2
20260904060428 65 85 9.0 19.0 0.00 0.00 0.00 96 946.3
20260904055927 65 83 9.0 19.0 0.00 0.00 0.00 96 946.3
20260904055426 65 71 7.0 18.0 0.00 0.00 0.00 96 946.3
20260904054925 65 65 6.0 14.0 0.00 0.00 0.00 96 946.0
20260904054424 65 68 6.0 14.0 0.00 0.00 0.00 96 946.1
20260904053407 65 58 6.0 14.0 0.00 0.00 0.00 97 946.1
20260904052906 65 55 6.0 14.0 0.00 0.00 0.00 96 946.2
20260904051849 65 60 5.0 25.0 0.00 0.00 0.00 97 945.9
20260904051348 65 69 5.0 16.0 0.00 0.00 0.00 96 946.0
20260904050847 65 67 7.0 16.0 0.00 0.00 0.00 96 945.8
20260904045830 65 55 7.0 15.0 0.00 0.00 0.00 96 945.8
20260904044812 66 59 7.0 15.0 0.00 0.00 0.00 96 945.9
20260904044311 65 55 7.0 16.0 0.00 0.00 0.00 96 945.4
20260904043254 66 43 8.0 15.0 0.00 0.00 0.00 95 945.5
20260904042753 66 60 7.0 13.0 0.00 0.00 0.00 95 945.2
20260904041736 67 51 5.0 13.0 0.00 0.00 0.00 95 945.1
20260904041235 67 53 7.0 14.0 0.00 0.00 0.00 94 945.4
20260904040733 67 52 7.0 14.0 0.00 0.00 0.00 94 945.0
20260904035716 67 44 7.0 13.0 0.00 0.00 0.00 91 945.4
20260904034143 68 48 7.0 14.0 0.00 0.00 0.00 90 945.4
20260904033642 68 50 8.0 14.0 0.00 0.00 0.00 88 945.3
20260904033141 68 55 6.0 13.0 0.00 0.00 0.00 89 945.3
20260904032640 68 52 8.0 14.0 0.00 0.00 0.00 89 945.2
20260904032139 68 55 6.0 14.0 0.00 0.00 0.00 89 945.2
20260904031638 69 52 6.0 14.0 0.00 0.00 0.00 89 945.3
20260904031136 69 45 5.0 14.0 0.00 0.00 0.00 91 945.2
20260904030635 69 41 7.0 15.0 0.00 0.00 0.00 91 945.3
20260904030134 69 47 7.0 15.0 0.00 0.00 0.00 92 945.3
20260904025117 69 42 7.0 15.0 0.00 0.00 0.00 92 945.4
20260904024616 69 50 7.0 15.0 0.00 0.00 0.00 92 945.5
20260904024115 69 44 8.0 15.0 0.00 0.00 0.00 91 945.3
20260904023613 70 55 7.0 15.0 0.00 0.00 0.00 92 945.3
20260904023112 70 49 7.0 14.0 0.00 0.00 0.00 92 945.3
20260904022611 70 54 6.0 16.0 0.00 0.00 0.00 93 945.1
20260904022110 70 54 7.0 16.0 0.00 0.00 0.00 92 945.5
20260904021053 71 45 6.0 19.0 0.00 0.00 0.00 92 945.4
20260904020036 71 44 7.0 15.0 0.00 0.00 0.00 92 945.5
20260904015535 71 51 6.0 16.0 0.00 0.00 0.00 91 945.3
20260904015034 72 58 6.0 16.0 0.00 0.00 0.00 91 945.5
20260904014534 72 61 5.0 12.0 0.00 0.00 0.00 92 945.5
20260904013000 72 53 7.0 15.0 0.00 0.00 0.00 90 945.9
20260904012459 72 54 7.0 18.0 0.00 0.00 0.00 89 945.5
20260904011958 72 51 7.0 18.0 0.00 0.00 0.00 89 945.9
20260904011457 73 51 5.0 16.0 0.00 0.00 0.00 88 945.6
20260904005408 74 51 6.0 13.0 0.00 0.00 0.00 87 946.0
20260904004907 74 48 5.0 13.0 0.00 0.00 0.00 86 945.8
20260904004407 74 48 6.0 14.0 0.00 0.00 0.00 86 945.8
20260904003349 74 50 5.0 14.0 0.00 0.00 0.00 85 945.9
20260904002332 74 50 8.0 16.0 0.00 0.00 0.00 83 945.9
20260904001831 73 52 7.0 16.0 0.00 0.00 0.00 84 945.8
20260904001331 74 45 9.0 16.0 0.00 0.00 0.00 83 945.8
20260904000829 73 45 6.0 16.0 0.00 0.00 0.00 86 945.8
20260904000328 73 44 8.0 16.0 0.00 0.00 0.00 86 946.1
20260903235827 73 49 8.0 15.0 0.00 0.00 0.00 86 945.8
20260903235327 73 42 7.0 15.0 0.00 0.00 0.00 89 946.2
20260903234826 73 50 9.0 15.0 0.00 0.00 0.00 87 946.4
20260903234325 73 46 7.0 14.0 0.00 0.00 0.00 88 946.2
20260903233824 74 55 7.0 14.0 0.00 0.00 0.00 87 946.7
20260903233322 74 46 6.0 16.0 0.00 0.00 0.00 86 946.8
20260903232822 74 57 7.0 16.0 0.00 0.00 0.00 87 946.7
20260903232320 74 55 7.0 15.0 0.00 0.00 0.00 86 946.7
20260903231819 74 47 6.0 15.0 0.00 0.00 0.00 87 946.8
20260903230803 75 50 7.0 15.0 0.00 0.00 0.00 85 947.0
20260903230301 75 47 6.0 14.0 0.00 0.00 0.00 85 947.1
20260903225801 75 57 4.0 16.0 0.00 0.00 0.00 85 946.8
20260903224744 75 54 6.0 13.0 0.00 0.00 0.00 85 946.7
20260903223726 76 46 6.0 16.0 0.00 0.00 0.00 83 947.2
20260903223224 75 45 6.0 16.0 0.00 0.00 0.00 84 947.1
20260903222208 76 50 6.0 14.0 0.00 0.00 0.00 83 947.1
20260903221706 75 38 5.0 16.0 0.00 0.00 0.00 84 947.3
20260903221206 76 46 7.0 16.0 0.00 0.00 0.00 82 947.4
20260903220704 76 46 7.0 12.0 0.00 0.00 0.00 81 947.3
20260903220203 76 40 6.0 18.0 0.00 0.00 0.00 82 947.6
20260903215702 76 44 6.0 18.0 0.00 0.00 0.00 81 947.4
20260903214645 76 37 8.0 18.0 0.00 0.00 0.00 79 947.3
20260903214144 76 47 7.0 18.0 0.00 0.00 0.00 80 947.7
20260903213643 75 39 7.0 18.0 0.00 0.00 0.00 81 947.5
20260903213142 75 44 5.0 19.0 0.00 0.00 0.00 82 947.3
20260903212641 75 41 9.0 19.0 0.00 0.00 0.00 80 947.6
20260903212140 75 47 6.0 18.0 0.00 0.00 0.00 82 947.6
20260903211639 75 41 6.0 19.0 0.00 0.00 0.00 82 948.0
20260903211138 75 42 7.0 19.0 0.00 0.00 0.00 82 947.8
20260903210637 75 44 8.0 14.0 0.00 0.00 0.00 81 947.2
20260903210136 75 43 5.0 14.0 0.00 0.00 0.00 82 947.6
20260903205635 75 39 7.0 14.0 0.00 0.00 0.00 81 947.6
20260903205134 76 47 7.0 14.0 0.00 0.00 0.00 78 947.9
20260903204633 75 49 6.0 14.0 0.00 0.00 0.00 80 947.7
20260903204132 75 47 7.0 15.0 0.00 0.00 0.00 80 947.9
20260903203631 75 43 8.0 16.0 0.00 0.00 0.00 80 948.0
20260903202613 75 44 6.0 16.0 0.00 0.00 0.00 79 948.0
20260903202112 74 46 8.0 16.0 0.00 0.00 0.00 80 947.8
20260903201611 75 53 7.0 15.0 0.00 0.00 0.00 80 948.0
20260903201110 74 54 8.0 15.0 0.00 0.00 0.00 79 948.0
20260903200608 74 62 5.0 19.0 0.00 0.00 0.00 80 948.0
20260903195551 73 51 9.0 19.0 0.00 0.00 0.00 79 948.2
20260903195050 73 41 11.0 19.0 0.00 0.00 0.00 79 947.8
20260903194549 73 46 7.0 15.0 0.00 0.00 0.00 80 947.7
20260903194048 73 45 8.0 16.0 0.00 0.00 0.00 80 948.1
20260903193031 73 48 7.0 15.0 0.00 0.00 0.00 80 947.4
20260903192014 73 48 7.0 15.0 0.00 0.00 0.00 79 947.7
20260903191513 72 40 7.0 16.0 0.00 0.00 0.00 81 948.0
20260903191012 72 50 6.0 16.0 0.00 0.00 0.00 81 947.6
20260903190511 72 41 9.0 16.0 0.00 0.00 0.00 79 948.0
20260903185454 72 46 7.0 19.0 0.00 0.00 0.00 81 948.0
20260903184953 71 59 7.0 18.0 0.00 0.00 0.00 81 947.7
20260903184452 71 57 6.0 18.0 0.00 0.00 0.00 81 947.7
20260903183951 71 42 7.0 20.0 0.00 0.00 0.00 81 948.1
20260903183450 71 57 8.0 20.0 0.00 0.00 0.00 81 947.8
20260903182433 71 51 7.0 15.0 0.00 0.00 0.00 80 947.6
20260903181416 70 48 8.0 14.0 0.00 0.00 0.00 79 947.4
20260903180915 70 52 6.0 15.0 0.00 0.00 0.00 80 947.5
20260903180414 70 45 7.0 19.0 0.00 0.00 0.00 81 947.6
20260903175912 70 49 6.0 19.0 0.00 0.00 0.00 81 947.6
20260903175411 69 56 6.0 14.0 0.00 0.00 0.00 81 947.3
20260903174910 69 47 6.0 14.0 0.00 0.00 0.00 82 947.1
20260903174408 69 53 7.0 13.0 0.00 0.00 0.00 82 947.3
20260903173907 68 52 5.0 14.0 0.00 0.00 0.00 83 947.2
20260903173406 68 47 7.0 14.0 0.00 0.00 0.00 84 947.5
20260903172905 68 54 6.0 14.0 0.00 0.00 0.00 84 947.2
20260903172404 68 49 7.0 14.0 0.00 0.00 0.00 84 947.2
20260903171903 68 50 6.0 14.0 0.00 0.00 0.00 84 947.3
20260903171402 67 49 7.0 14.0 0.00 0.00 0.00 83 946.9
20260903170901 67 51 7.0 14.0 0.00 0.00 0.00 83 946.8
20260903170400 67 47 7.0 15.0 0.00 0.00 0.00 83 947.2
20260903165859 67 43 7.0 15.0 0.00 0.00 0.00 83 947.1
20260903165358 67 45 8.0 15.0 0.00 0.00 0.00 83 946.8
20260903164341 66 46 6.0 15.0 0.00 0.00 0.00 84 947.0
20260903163840 66 49 8.0 15.0 0.00 0.00 0.00 84 947.1
20260903163339 66 48 5.0 14.0 0.00 0.00 0.00 84 947.1
20260903162837 66 45 6.0 14.0 0.00 0.00 0.00 84 946.8
20260903162336 66 59 6.0 14.0 0.00 0.00 0.00 84 946.8
20260903161835 66 51 6.0 14.0 0.00 0.00 0.00 83 947.2
20260903161334 66 48 7.0 13.0 0.00 0.00 0.00 83 947.1
20260903160833 66 48 7.0 20.0 0.00 0.00 0.00 83 947.0
20260903160332 66 44 6.0 20.0 0.00 0.00 0.00 84 947.5
20260903155315 66 48 6.0 13.0 0.00 0.00 0.00 84 947.0
20260903154814 66 48 7.0 13.0 0.00 0.00 0.00 84 946.6
20260903154313 66 55 5.0 14.0 0.00 0.00 0.00 83 946.5
20260903153812 66 45 8.0 14.0 0.00 0.00 0.00 83 946.6
20260903153311 66 50 6.0 13.0 0.00 0.00 0.00 83 946.7
20260903152809 66 50 6.0 14.0 0.00 0.00 0.00 83 947.0
20260903151235 66 60 5.0 13.0 0.00 0.00 0.00 82 946.6
20260903150734 66 61 7.0 19.0 0.00 0.00 0.00 83 946.7
20260903145717 66 57 7.0 18.0 0.00 0.00 0.00 84 946.4
20260903145216 65 55 5.0 13.0 0.00 0.00 0.00 85 946.5
20260903144714 65 50 6.0 13.0 0.00 0.00 0.00 85 946.8
20260903144213 65 52 5.0 14.0 0.00 0.00 0.00 85 946.5
20260903143712 66 54 6.0 14.0 0.00 0.00 0.00 84 947.1
20260903143211 65 63 5.0 13.0 0.00 0.00 0.00 84 946.8
20260903142710 65 72 5.0 13.0 0.00 0.00 0.00 85 946.8
20260903142209 65 59 6.0 13.0 0.00 0.00 0.00 85 946.6
20260903141708 65 47 6.0 13.0 0.00 0.00 0.00 85 946.7
20260903141207 65 49 7.0 13.0 0.00 0.00 0.00 86 946.4
20260903140706 65 47 5.0 13.0 0.00 0.00 0.00 86 946.6
20260903140205 65 46 4.0 13.0 0.00 0.00 0.00 86 946.8
20260903135704 65 53 4.0 13.0 0.00 0.00 0.00 86 947.0
20260903134131 65 59 6.0 15.0 0.00 0.00 0.00 86 946.9
20260903133630 65 62 5.0 16.0 0.00 0.00 0.00 86 946.9
20260903133129 65 65 7.0 16.0 0.00 0.00 0.00 86 946.8
20260903132628 65 55 6.0 14.0 0.00 0.00 0.00 87 946.8
20260903131611 65 60 7.0 16.0 0.00 0.00 0.00 89 946.6
20260903131109 65 56 6.0 13.0 0.00 0.00 0.00 90 946.8
20260903130609 65 52 6.0 14.0 0.00 0.00 0.00 90 947.3
20260903130107 66 55 6.0 15.0 0.00 0.00 0.00 90 946.9
20260903125605 66 60 5.0 16.0 0.00 0.00 0.00 90 947.0
20260903124548 66 62 7.0 22.0 0.00 0.00 0.00 91 947.2
20260903124047 66 58 7.0 22.0 0.00 0.00 0.00 91 947.0
20260903123546 66 61 7.0 15.0 0.00 0.00 0.00 92 947.1
20260903123045 66 59 7.0 21.0 0.00 0.00 0.00 92 947.1
20260903122544 66 64 9.0 21.0 0.00 0.00 0.00 93 946.9
20260903122043 66 56 8.0 20.0 0.00 0.00 0.00 93 946.7
20260903121026 66 56 8.0 19.0 0.00 0.00 0.00 93 947.1
20260903120525 66 61 9.0 20.0 0.00 0.00 0.00 92 946.9
20260903120023 66 55 8.0 20.0 0.00 0.00 0.00 92 947.0